OEFEE LIPV-LIPH

Flight info

Callsign OEFEE
Flight time 0h 12m
Altitude 0
Route MESTRENORD MARTELLAGO
Aircraft DA42/L-S/C

Departure

Time 2026-05-08 17:14
Airport Venice-Lido Giovanni Nicelli Airfield (LIPV)

Arrival

Time 2026-05-08 17:27
Airport Treviso Airport (LIPH)
Time Latitude Longitude Altitude Speed Heading
2026-05-08 17:14 45.50567 12.29892 1482 ft 109 kts 279°
2026-05-08 17:14 45.50680 12.28821 1480 ft 110 kts 279°
2026-05-08 17:15 45.50841 12.27755 1485 ft 110 kts 284°
2026-05-08 17:15 45.50964 12.27051 1485 ft 111 kts 284°
2026-05-08 17:15 45.51150 12.25983 1485 ft 111 kts 284°
2026-05-08 17:15 45.51401 12.24548 1481 ft 112 kts 284°
2026-05-08 17:16 45.51526 12.23837 1481 ft 112 kts 284°
2026-05-08 17:16 45.51743 12.22400 1480 ft 112 kts 275°
2026-05-08 17:16 45.51953 12.21345 1479 ft 112 kts 301°
2026-05-08 17:16 45.52246 12.20721 1482 ft 112 kts 304°
2026-05-08 17:17 45.52702 12.19822 1485 ft 112 kts 306°
2026-05-08 17:17 45.53168 12.18934 1476 ft 111 kts 307°
2026-05-08 17:19 45.55231 12.16162 1485 ft 113 kts 359°
2026-05-08 17:19 45.56014 12.16205 1479 ft 113 kts 344°
2026-05-08 17:19 45.56618 12.15547 1476 ft 112 kts 302°
2026-05-08 17:20 45.57010 12.14593 1481 ft 112 kts 299°
2026-05-08 17:20 45.57266 12.13956 1479 ft 112 kts 299°
2026-05-08 17:20 45.57702 12.12615 1480 ft 112 kts 287°
2026-05-08 17:20 45.57848 12.11911 1475 ft 112 kts 286°
2026-05-08 17:21 45.58064 12.10847 1476 ft 111 kts 285°
2026-05-08 17:21 45.58265 12.09809 1470 ft 106 kts 287°
2026-05-08 17:21 45.58512 12.08837 1467 ft 102 kts 293°
2026-05-08 17:21 45.58801 12.07957 1466 ft 94 kts 298°
2026-05-08 17:22 45.59190 12.07250 1466 ft 88 kts 316°
2026-05-08 17:22 45.59635 12.06677 1466 ft 85 kts 317°
2026-05-08 17:22 45.60110 12.06176 1465 ft 86 kts 339°
2026-05-08 17:22 45.60681 12.05903 1469 ft 87 kts 342°
2026-05-08 17:23 45.61288 12.05927 1472 ft 89 kts 10°
2026-05-08 17:23 45.61789 12.06415 1473 ft 90 kts 58°
2026-05-08 17:23 45.61997 12.07262 1475 ft 91 kts 73°
2026-05-08 17:23 45.62179 12.08162 1392 ft 96 kts 74°
2026-05-08 17:24 45.62355 12.09052 1264 ft 89 kts 74°
2026-05-08 17:24 45.62511 12.09843 1118 ft 79 kts 74°
2026-05-08 17:24 45.62660 12.10590 998 ft 78 kts 74°
2026-05-08 17:24 45.62807 12.11341 869 ft 77 kts 74°
2026-05-08 17:25 45.62949 12.12065 743 ft 76 kts 74°
2026-05-08 17:25 45.63098 12.12801 704 ft 84 kts 74°
2026-05-08 17:25 45.63287 12.13620 650 ft 86 kts 69°
2026-05-08 17:25 45.63514 12.14408 539 ft 85 kts 68°
2026-05-08 17:26 45.63723 12.15175 454 ft 83 kts 68°
2026-05-08 17:26 45.63937 12.15947 362 ft 85 kts 68°
2026-05-08 17:26 45.64148 12.16734 266 ft 85 kts 70°
2026-05-08 17:26 45.64354 12.17529 160 ft 84 kts 69°
2026-05-08 17:27 45.64554 12.18289 66 ft 78 kts 69°
2026-05-08 17:27 45.64710 12.18877 59 ft 51 kts 69°
2026-05-08 17:27 45.64811 12.19256 58 ft 32 kts 68°
2026-05-08 17:27 45.64888 12.19535 53 ft 28 kts 70°
2026-05-08 17:28 45.64954 12.19788 54 ft 26 kts 69°
2026-05-08 17:28 45.65021 12.20042 55 ft 33 kts 69°
2026-05-08 17:28 45.65123 12.20212 57 ft 17 kts 31°
2026-05-08 17:28 45.65203 12.20269 56 ft 1 kts 25°
2026-05-08 17:29 45.65246 12.20274 56 ft 12 kts 324°
2026-05-08 17:29 45.65242 12.20158 53 ft 10 kts 245°
2026-05-08 17:30 45.65271 12.20087 56 ft 10 kts 266°
2026-05-08 17:30 45.65261 12.20028 50 ft 0 kts 210°